30.06.2024;16:00;85
30.06.2024;15:00;87
30.06.2024;14:00;92
30.06.2024;13:00;93
30.06.2024;12:00;97
30.06.2024;11:00;94
30.06.2024;10:00;89
30.06.2024;09:00;87
30.06.2024;08:00;90
30.06.2024;07:00;96
30.06.2024;06:00;98
30.06.2024;05:00;102
30.06.2024;04:00;100
30.06.2024;03:00;110
30.06.2024;02:00;92
30.06.2024;01:00;83
30.06.2024;00:00;105
29.06.2024;23:00;106
29.06.2024;22:00;101
29.06.2024;21:00;116
29.06.2024;20:00;132
29.06.2024;19:00;115
29.06.2024;18:00;116
29.06.2024;17:00;116
29.06.2024;16:00;123
29.06.2024;15:00;122
29.06.2024;14:00;122
29.06.2024;13:00;121
29.06.2024;12:00;127
29.06.2024;11:00;111
29.06.2024;10:00;94
29.06.2024;09:00;55
29.06.2024;08:00;29
29.06.2024;07:00;20
29.06.2024;06:00;21
29.06.2024;05:00;24
29.06.2024;04:00;25
29.06.2024;03:00;27
29.06.2024;02:00;30
29.06.2024;01:00;39
29.06.2024;00:00;63
28.06.2024;23:00;79
28.06.2024;22:00;90
28.06.2024;21:00;99
28.06.2024;20:00;110
28.06.2024;19:00;118
28.06.2024;18:00;126
28.06.2024;17:00;127
